This is the latest recevied weather packets stored in our database for station/object EA1GGY-1. If no packets are shown the sender has not sent any weather packets the latest 10 day(s).
| Time | Temp. | Humidity | Pressure | Rain* | Wind** | Luminosity | Snow |
|---|---|---|---|---|---|---|---|
| 1778070557 | 12.78° C | 54% | 1008.4 hPa | - | - | - | - |
| 1778069955 | 12.22° C | 54% | 1008.5 hPa | - | - | - | - |
| 1778069356 | 12.22° C | 55% | 1008.5 hPa | - | - | - | - |
| 1778068754 | 12.22° C | 55% | 1008.5 hPa | - | - | - | - |
| 1778068153 | 12.22° C | 55% | 1008.6 hPa | - | - | - | - |
| 1778067552 | 12.22° C | 56% | 1008.6 hPa | - | - | - | - |
| 1778066953 | 12.78° C | 54% | 1008.7 hPa | - | - | - | - |
| 1778066350 | 12.78° C | 54% | 1008.7 hPa | - | - | - | - |
| 1778065749 | 13.33° C | 53% | 1008.7 hPa | - | - | - | - |
| 1778065148 | 12.78° C | 53% | 1008.7 hPa | - | - | - | - |
| 1778064547 | 14.44° C | 51% | 1008.7 hPa | - | - | - | - |
| 1778063947 | 15° C | 52% | 1008.8 hPa | - | - | - | - |
| 1778063347 | 13.33° C | 49% | 1008.9 hPa | - | - | - | - |
| 1778062745 | 11.67° C | 54% | 1008.9 hPa | - | - | - | - |
| 1778062144 | 12.22° C | 55% | 1008.9 hPa | - | - | - | - |
| 1778061544 | 11.67° C | 56% | 1008.9 hPa | - | - | - | - |
| 1778060943 | 10° C | 58% | 1009 hPa | - | - | - | - |
| 1778060342 | 10.56° C | 60% | 1009.1 hPa | - | - | - | - |
| 1778059742 | 10° C | 60% | 1009 hPa | - | - | - | - |
| 1778059140 | 10° C | 60% | 1009 hPa | - | - | - | - |
| 1778058539 | 9.44° C | 62% | 1009 hPa | - | - | - | - |
| 1778057939 | 8.89° C | 62% | 1009 hPa | - | - | - | - |
| 1778056136 | 8.33° C | 64% | 1009 hPa | - | - | - | - |
| 1778055537 | 8.33° C | 65% | 1009 hPa | - | - | - | - |
| 1778054935 | 8.33° C | 67% | 1009.1 hPa | - | - | - | - |
* Rain since midnight (hover to see other rain measurements)
** Current wind speed in m/s (hover to see current wind gust speed)